| time (UTC) | temp F | wind direction | speed MPH | gust MPH | rain 1hr in | rain 24hr in | rain mn in | humidity % | barometer mb |
| 20260831181611 | 73 | 313 | 6.0 | 13.0 | 0.00 | 0.09 | 0.00 | 43 | 1019.6 |
| 20260831180056 | 73 | 321 | 6.0 | 12.0 | 0.00 | 0.09 | 0.00 | 39 | 1019.7 |
| 20260831174549 | 74 | 327 | 5.0 | 10.0 | 0.00 | 0.09 | 0.00 | 42 | 1019.8 |
| 20260831173040 | 74 | 19 | 3.0 | 9.0 | 0.00 | 0.09 | 0.00 | 36 | 1019.9 |
| 20260831171535 | 74 | 346 | 2.0 | 9.0 | 0.00 | 0.09 | 0.00 | 41 | 1020.2 |
| 20260831170034 | 72 | 347 | 1.0 | 8.0 | 0.00 | 0.09 | 0.00 | 39 | 1020.3 |
| 20260831164526 | 72 | 5 | 2.0 | 5.0 | 0.00 | 0.09 | 0.00 | 43 | 1020.3 |
| 20260831163021 | 71 | 331 | 1.0 | 5.0 | 0.00 | 0.09 | 0.00 | 48 | 1020.4 |
| 20260831161529 | 71 | 312 | 4.0 | 6.0 | 0.00 | 0.09 | 0.00 | 48 | 1020.4 |
| 20260831160014 | 70 | 355 | 2.0 | 9.0 | 0.00 | 0.09 | 0.00 | 54 | 1020.7 |
| 20260831154507 | 68 | 43 | 1.0 | 4.0 | 0.00 | 0.09 | 0.00 | 54 | 1020.7 |
| 20260831153002 | 67 | 45 | 3.0 | 7.0 | 0.00 | 0.09 | 0.00 | 54 | 1020.6 |
| 20260831151558 | 67 | 21 | 3.0 | 8.0 | 0.00 | 0.09 | 0.00 | 57 | 1020.7 |
| 20260831144556 | 66 | 5 | 2.0 | 9.0 | 0.00 | 0.09 | 0.00 | 60 | 1021.0 |
| 20260831143045 | 64 | 331 | 1.0 | 6.0 | 0.00 | 0.09 | 0.00 | 63 | 1021.0 |
| 20260831141538 | 64 | 317 | 3.0 | 6.0 | 0.00 | 0.09 | 0.00 | 63 | 1021.1 |
| 20260831140035 | 63 | 341 | 3.0 | 8.0 | 0.00 | 0.09 | 0.00 | 63 | 1021.1 |
| 20260831134532 | 62 | 311 | 3.0 | 6.0 | 0.00 | 0.09 | 0.00 | 59 | 1021.1 |
| 20260831133025 | 61 | 323 | 3.0 | 6.0 | 0.00 | 0.09 | 0.00 | 58 | 1021.0 |
| 20260831131537 | 60 | 324 | 2.0 | 5.0 | 0.00 | 0.09 | 0.00 | 51 | 1021.0 |
| 20260831130020 | 60 | 311 | 2.0 | 9.0 | 0.00 | 0.09 | 0.00 | 46 | 1021.0 |
| 20260831124512 | 59 | 310 | 5.0 | 11.0 | 0.00 | 0.09 | 0.00 | 50 | 1020.8 |
| 20260831123007 | 58 | 329 | 6.0 | 11.0 | 0.00 | 0.09 | 0.00 | 44 | 1020.7 |
| 20260831121503 | 58 | 323 | 2.0 | 5.0 | 0.00 | 0.09 | 0.00 | 39 | 1020.8 |
| 20260831120059 | 57 | 320 | 3.0 | 6.0 | 0.00 | 0.09 | 0.00 | 34 | 1020.7 |
| 20260831114554 | 57 | 312 | 2.0 | 6.0 | 0.00 | 0.09 | 0.00 | 26 | 1020.5 |
| 20260831113050 | 57 | 286 | 4.0 | 8.0 | 0.00 | 0.09 | 0.00 | 29 | 1020.5 |
| 20260831111551 | 57 | 294 | 3.0 | 9.0 | 0.00 | 0.09 | 0.00 | 35 | 1020.5 |
| 20260831110041 | 57 | 261 | 3.0 | 8.0 | 0.00 | 0.09 | 0.00 | 42 | 1020.2 |
| 20260831104538 | 57 | 320 | 3.0 | 10.0 | 0.00 | 0.09 | 0.00 | 41 | 1020.2 |
| 20260831103031 | 56 | 320 | 5.0 | 10.0 | 0.00 | 0.09 | 0.00 | 36 | 1020.1 |
| 20260831101527 | 56 | 256 | 4.0 | 9.0 | 0.00 | 0.09 | 0.00 | 30 | 1020.0 |
| 20260831100027 | 56 | 287 | 3.0 | 7.0 | 0.00 | 0.09 | 0.00 | 29 | 1019.9 |
| 20260831094531 | 56 | 292 | 4.0 | 10.0 | 0.00 | 0.09 | 0.00 | 28 | 1019.8 |
| 20260831093035 | 56 | 311 | 2.0 | 8.0 | 0.00 | 0.09 | 0.00 | 29 | 1019.6 |
| 20260831091509 | 56 | 289 | 2.0 | 5.0 | 0.00 | 0.09 | 0.00 | 35 | 1019.6 |
| 20260831090005 | 57 | 296 | 2.0 | 5.0 | 0.00 | 0.09 | 0.00 | 38 | 1019.4 |
| 20260831084600 | 57 | 289 | 1.0 | 5.0 | 0.00 | 0.09 | 0.00 | 40 | 1019.3 |
| 20260831083107 | 57 | 273 | 2.0 | 7.0 | 0.00 | 0.09 | 0.00 | 43 | 1019.1 |
| 20260831081558 | 58 | 289 | 2.0 | 5.0 | 0.00 | 0.09 | 0.00 | 47 | 1019.0 |
| 20260831080119 | 58 | 298 | 2.0 | 5.0 | 0.00 | 0.09 | 0.00 | 50 | 1019.0 |
| 20260831074543 | 59 | 296 | 1.0 | 5.0 | 0.00 | 0.09 | 0.00 | 52 | 1018.9 |
| 20260831073036 | 59 | 311 | 2.0 | 12.0 | 0.00 | 0.09 | 0.00 | 55 | 1018.7 |
| 20260831071542 | 59 | 5 | 4.0 | 10.0 | 0.00 | 0.09 | 0.00 | 54 | 1018.7 |
| 20260831070028 | 59 | 285 | 5.0 | 9.0 | 0.00 | 0.09 | 0.00 | 51 | 1018.6 |
| 20260831064522 | 59 | 329 | 3.0 | 8.0 | 0.00 | 0.09 | 0.00 | 51 | 1018.7 |
| 20260831063017 | 59 | 5 | 1.0 | 5.0 | 0.00 | 0.09 | 0.00 | 41 | 1018.6 |
| 20260831061513 | 60 | 244 | 3.0 | 8.0 | 0.00 | 0.09 | 0.00 | 42 | 1018.5 |
| 20260831060011 | 60 | 281 | 5.0 | 10.0 | 0.00 | 0.09 | 0.00 | 42 | 1018.4 |
| 20260831054504 | 60 | 275 | 3.0 | 9.0 | 0.00 | 0.09 | 0.00 | 30 | 1018.5 |
| 20260831053129 | 60 | 308 | 4.0 | 10.0 | 0.00 | 0.09 | 0.00 | 19 | 1018.3 |
| 20260831051554 | 60 | 255 | 5.0 | 11.0 | 0.00 | 0.09 | 0.00 | 35 | 1018.2 |
| 20260831050050 | 60 | 300 | 2.0 | 9.0 | 0.00 | 0.09 | 0.00 | 32 | 1018.3 |
| 20260831044636 | 60 | 298 | 6.0 | 12.0 | 0.00 | 0.09 | 0.00 | 33 | 1018.2 |
| 20260831043042 | 60 | 348 | 3.0 | 10.0 | 0.00 | 0.09 | 0.00 | 27 | 1018.2 |
| 20260831041539 | 60 | 5 | 4.0 | 10.0 | 0.00 | 0.09 | 0.00 | 17 | 1018.3 |
| 20260831040033 | 60 | 328 | 4.0 | 11.0 | 0.00 | 0.09 | 0.00 | 1 | 1018.2 |
| 20260831034530 | 60 | 319 | 3.0 | 9.0 | 0.00 | 0.09 | 0.09 | 1 | 1018.0 |
| 20260831033026 | 61 | 333 | 4.0 | 12.0 | 0.00 | 0.09 | 0.09 | 1 | 1018.1 |
| 20260831031531 | 61 | 327 | 5.0 | 15.0 | 0.00 | 0.09 | 0.09 | 1 | 1018.0 |
| 20260831030015 | 62 | 281 | 7.0 | 17.0 | 0.00 | 0.09 | 0.09 | 1 | 1018.0 |
| 20260831024512 | 62 | 266 | 10.0 | 18.0 | 0.00 | 0.09 | 0.09 | 1 | 1018.1 |
| 20260831023011 | 62 | 281 | 9.0 | 14.0 | 0.00 | 0.09 | 0.09 | 1 | 1017.8 |
| 20260831021502 | 62 | 263 | 10.0 | 18.0 | 0.00 | 0.09 | 0.09 | 1 | 1017.7 |
| 20260831020057 | 62 | 360 | 9.0 | 16.0 | 0.02 | 0.09 | 0.09 | 1 | 1017.7 |
| 20260831014552 | 62 | 256 | 9.0 | 17.0 | 0.09 | 0.09 | 0.09 | 1 | 1017.4 |
| 20260831013049 | 62 | 256 | 12.0 | 17.0 | 0.09 | 0.09 | 0.09 | 1 | 1017.4 |
| 20260831011552 | 63 | 360 | 8.0 | 14.0 | 0.09 | 0.09 | 0.09 | 1 | 1017.3 |
| 20260831010056 | 65 | 288 | 7.0 | 13.0 | 0.06 | 0.06 | 0.06 | 9 | 1017.2 |
| 20260831004535 | 67 | 263 | 8.0 | 16.0 | 0.00 | 0.00 | 0.00 | 45 | 1017.0 |
| 20260831003035 | 67 | 288 | 10.0 | 17.0 | 0.00 | 0.00 | 0.00 | 45 | 1016.6 |
| 20260831001537 | 67 | 302 | 4.0 | 8.0 | 0.00 | 0.00 | 0.00 | 49 | 1016.3 |
| 20260831000033 | 68 | 299 | 3.0 | 6.0 | 0.00 | 0.00 | 0.00 | 57 | 1016.1 |
| 20260830234532 | 68 | 286 | 3.0 | 7.0 | 0.00 | 0.00 | 0.00 | 58 | 1015.8 |
| 20260830233037 | 68 | 265 | 4.0 | 7.0 | 0.00 | 0.00 | 0.00 | 60 | 1015.6 |
| 20260830231529 | 68 | 264 | 3.0 | 7.0 | 0.00 | 0.00 | 0.00 | 61 | 1015.6 |
| 20260830230028 | 68 | 268 | 5.0 | 9.0 | 0.00 | 0.00 | 0.00 | 61 | 1015.7 |
| 20260830224528 | 69 | 244 | 3.0 | 7.0 | 0.00 | 0.00 | 0.00 | 61 | 1015.8 |
| 20260830223026 | 69 | 232 | 3.0 | 5.0 | 0.00 | 0.00 | 0.00 | 61 | 1015.8 |
| 20260830221524 | 69 | 259 | 2.0 | 9.0 | 0.00 | 0.00 | 0.00 | 62 | 1015.8 |
| 20260830220024 | 69 | 269 | 5.0 | 9.0 | 0.00 | 0.00 | 0.00 | 62 | 1016.0 |
| 20260830214523 | 69 | 300 | 3.0 | 8.0 | 0.00 | 0.00 | 0.00 | 62 | 1016.0 |
| 20260830213030 | 69 | 238 | 3.0 | 10.0 | 0.00 | 0.00 | 0.00 | 62 | 1016.0 |
| 20260830211522 | 69 | 264 | 7.0 | 11.0 | 0.00 | 0.00 | 0.00 | 62 | 1016.1 |
| 20260830210022 | 69 | 246 | 6.0 | 12.0 | 0.00 | 0.00 | 0.00 | 62 | 1016.2 |
| 20260830204534 | 70 | 263 | 9.0 | 15.0 | 0.00 | 0.00 | 0.00 | 62 | 1016.4 |
| 20260830203018 | 70 | 255 | 7.0 | 13.0 | 0.00 | 0.00 | 0.00 | 62 | 1016.6 |
| 20260830201514 | 69 | 281 | 9.0 | 16.0 | 0.00 | 0.00 | 0.00 | 62 | 1016.7 |
| 20260830200013 | 69 | 227 | 8.0 | 15.0 | 0.00 | 0.00 | 0.00 | 62 | 1016.7 |
| 20260830194512 | 69 | 284 | 9.0 | 16.0 | 0.00 | 0.00 | 0.00 | 62 | 1016.7 |
| 20260830193026 | 69 | 250 | 10.0 | 17.0 | 0.00 | 0.00 | 0.00 | 62 | 1016.8 |
| 20260830191523 | 69 | 279 | 8.0 | 15.0 | 0.00 | 0.00 | 0.00 | 62 | 1016.8 |
| 20260830190007 | 69 | 248 | 10.0 | 24.0 | 0.00 | 0.00 | 0.00 | 62 | 1017.2 |
| 20260830184506 | 69 | 254 | 10.0 | 16.0 | 0.00 | 0.00 | 0.00 | 62 | 1017.3 |
| 20260830183003 | 69 | 247 | 8.0 | 16.0 | 0.00 | 0.00 | 0.00 | 62 | 1017.5 |